This is the latest recevied weather packets stored in our database for station/object W1HS. If no packets are shown the sender has not sent any weather packets the latest 10 day(s).
| Time | Temp. | Humidity | Pressure | Rain* | Wind** | Luminosity | Snow |
|---|---|---|---|---|---|---|---|
| 1777116979 | 1.67° C | 78% | 999.2 hPa | 0 mm | - | 185 W/m² | - |
| 1777116379 | 1.11° C | 77% | 999.2 hPa | 0 mm | - | 54 W/m² | - |
| 1777115779 | 1.11° C | 78% | 999.2 hPa | 0 mm | - | 40 W/m² | - |
| 1777115179 | 1.11° C | 77% | 999 hPa | 0 mm | - | 32 W/m² | - |
| 1777114579 | 1.11° C | 77% | 999 hPa | 0 mm | - | 37 W/m² | - |
| 1777113979 | 1.11° C | 77% | 998.9 hPa | 0 mm | - | 47 W/m² | - |
| 1777113379 | 1.11° C | 77% | 998.7 hPa | 0 mm | - | 23 W/m² | - |
| 1777112781 | 0.56° C | 77% | 998.6 hPa | 0 mm | - | 19 W/m² | - |
| 1777112179 | 1.11° C | 76% | 998.5 hPa | 0 mm | - | 12 W/m² | - |
| 1777111579 | 1.11° C | 76% | 998.5 hPa | 0 mm | - | 9 W/m² | - |
| 1777110979 | 1.67° C | 75% | 998.5 hPa | 0 mm | - | 5 W/m² | - |
| 1777110383 | 1.67° C | 75% | 998.2 hPa | 0 mm | - | 0 W/m² | - |
| 1777109778 | 1.67° C | 75% | 998.3 hPa | 0 mm | - | 0 W/m² | - |
| 1777109178 | 1.11° C | 76% | 997.9 hPa | 0 mm | - | 0 W/m² | - |
| 1777108579 | 1.11° C | 75% | 997.8 hPa | 0 mm | - | 0 W/m² | - |
| 1777107979 | 1.11° C | 74% | 997.7 hPa | 0 mm | - | 0 W/m² | - |
| 1777107379 | 1.11° C | 74% | 997.7 hPa | 0 mm | - | 0 W/m² | - |
| 1777106780 | 1.11° C | 73% | 997.6 hPa | 0 mm | - | 0 W/m² | - |
| 1777106179 | 1.67° C | 72% | 997.6 hPa | 0 mm | - | 0 W/m² | - |
| 1777105580 | 1.11° C | 72% | 997.6 hPa | 0 mm | - | 0 W/m² | - |
| 1777104978 | 1.11° C | 72% | 997.6 hPa | 0 mm | - | 0 W/m² | - |
| 1777104378 | 1.11° C | 71% | 997.6 hPa | 0 mm | - | 0 W/m² | - |
| 1777103779 | 1.11° C | 70% | 997.7 hPa | 0 mm | - | 0 W/m² | - |
| 1777103178 | 1.67° C | 70% | 997.7 hPa | 0 mm | - | 0 W/m² | - |
| 1777102579 | 1.67° C | 69% | 997.5 hPa | 0 mm | - | 0 W/m² | - |
* Rain latest hour (hover to see other rain measurements)
** Current wind speed in m/s (hover to see current wind gust speed)